Change the Weather History Date:

Thursday, January 23, 2014

  Actual Average Record
Temperature  
Mean Temperature 34 °F -  
Max Temperature 54 °F 42 °F 64 °F (1970)
Min Temperature 14 °F 17 °F -21 °F (1949)
Degree Days  
Heating Degree Days 31    
Moisture  
Dew Point 15 °F    
Average Humidity 44    
Maximum Humidity 74    
Minimum Humidity 24    
Precipitation  
Precipitation 0.00 in - - ()
Sea Level Pressure  
Sea Level Pressure 30.27 in    
Wind  
Wind Speed 10 mph (NE)    
Max Wind Speed 16 mph    
Max Gust Speed 23 mph    
Visibility 10 miles    
Events      
Averages and records for this station are not official NWS values.
T = Trace of Precipitation, MM = Missing Value Source: NWS Daily Summary

Daily Weather History Graph

Daily Weather History Graph

Search for Another Location

Airport or City:

Trip Planner

Search our weather history database for the weather conditions in past years. The results will help you decide how hot, cold, wet, or windy it might be!

Date:

Astronomy

Jan. 23, 2014 Rise Set
Actual Time 7:10 AM PST 5:02 PM PST
Civil Twilight 6:40 AM PST 5:31 PM PST
Nautical Twilight 6:07 AM PST 6:04 PM PST
Astronomical Twilight 5:35 AM PST 6:37 PM PST
Moon No Moon Rise 10:48 AM PST (1/23)
Length of Visible Light 10h 51m
Length of Day
9h 52m
Waning Gibbous, 54% of the Moon is Illuminated
Jan 23
Waning Gibbous
Jan 23
Last Quarter
Jan 30
New
Feb 6
First Quarter
Feb 14
Full

Hourly Weather History & Observations

Time (PST) Temp. Windchill Dew Point Humidity Pressure Visibility Wind Dir Wind Speed Gust Speed Precip Events Conditions
12:53 AM 34.0 °F 24.2 °F 14.0 °F 44% 30.18 in 10.0 mi NNE 15.0 mph - N/A   Clear
1:53 AM 30.9 °F 26.2 °F 14.0 °F 50% 30.19 in 10.0 mi Variable 4.6 mph - N/A   Clear
2:53 AM 30.0 °F 21.7 °F 15.1 °F 54% 30.19 in 10.0 mi NNE 9.2 mph - N/A   Clear
3:53 AM 30.9 °F 22.8 °F 16.0 °F 54% 30.20 in 10.0 mi NNE 9.2 mph - N/A   Clear
4:53 AM 32.0 °F 22.5 °F 17.1 °F 54% 30.23 in 10.0 mi NNE 12.7 mph - N/A   Clear
5:53 AM 28.0 °F - 16.0 °F 61% 30.28 in 10.0 mi Calm Calm - N/A   Clear
6:53 AM 14.0 °F 6.5 °F 7.0 °F 74% 30.34 in 10.0 mi SSW 4.6 mph - N/A   Clear
7:53 AM 19.0 °F 10.0 °F 10.9 °F 71% 30.34 in 10.0 mi South 6.9 mph - N/A   Clear
8:53 AM 35.1 °F 27.9 °F 18.0 °F 50% 30.32 in 10.0 mi North 9.2 mph - N/A   Clear
9:53 AM 39.9 °F 31.8 °F 19.9 °F 45% 30.31 in 10.0 mi NNE 15.0 mph - N/A   Clear
10:53 AM 45.0 °F 38.5 °F 19.9 °F 37% 30.27 in 10.0 mi NNE 13.8 mph - N/A   Clear
11:53 AM 48.9 °F - 19.0 °F 31% 30.24 in 10.0 mi NNW 8.1 mph - N/A   Clear
12:53 PM 51.1 °F - 19.0 °F 28% 30.21 in 10.0 mi East 8.1 mph - N/A   Clear
1:53 PM 53.1 °F - 19.0 °F 26% 30.19 in 9.0 mi NE 15.0 mph 23.0 mph N/A   Clear
2:31 PM 53.1 °F - 18.0 °F 25% 30.18 in 7.0 mi ESE 13.8 mph 23.0 mph N/A   Partly Cloudy
2:53 PM 54.0 °F - 18.0 °F 24% 30.19 in 8.0 mi East 16.1 mph 23.0 mph N/A   Clear
3:53 PM 53.1 °F - 17.1 °F 24% 30.21 in 10.0 mi East 15.0 mph - N/A   Clear
4:53 PM 46.9 °F - 17.1 °F 30% 30.23 in 10.0 mi ENE 9.2 mph - N/A   Clear
5:53 PM 43.0 °F 37.7 °F 16.0 °F 34% 30.27 in 10.0 mi ENE 9.2 mph - N/A   Clear
6:53 PM 39.0 °F 33.4 °F 15.1 °F 38% 30.33 in 10.0 mi NE 8.1 mph - N/A   Clear
7:53 PM 35.1 °F 31.0 °F 14.0 °F 42% 30.36 in 10.0 mi SW 4.6 mph - N/A   Clear
8:53 PM 30.0 °F - 12.9 °F 49% 30.37 in 10.0 mi Calm Calm - N/A   Clear
9:53 PM 24.1 °F 18.2 °F 10.0 °F 55% 30.40 in 10.0 mi West 4.6 mph - N/A   Clear
10:53 PM 23.0 °F - 10.0 °F 58% 30.41 in 10.0 mi Calm Calm - N/A   Clear
11:53 PM 35.1 °F 30.1 °F 14.0 °F 42% 30.39 in 10.0 mi NE 5.8 mph - N/A   Clear